This is the latest recevied weather packets stored in our database for station/object EA3DJ-10. If no packets are shown the sender has not sent any weather packets the latest 10 day(s).
| Time | Temp. | Humidity | Pressure | Rain* | Wind** | Luminosity | Snow |
|---|---|---|---|---|---|---|---|
| 1788520858 | 28.33° C | 55% | 1021 hPa | - | - | - | - |
| 1788519658 | 28.33° C | 55% | 1021.2 hPa | - | - | - | - |
| 1788518458 | 28.33° C | 55% | 1021.4 hPa | - | - | - | - |
| 1788517258 | 28.33° C | 55% | 1021.6 hPa | - | - | - | - |
| 1788516058 | 28.33° C | 55% | 1021.6 hPa | - | - | - | - |
| 1788514858 | 28.33° C | 54% | 1021.6 hPa | - | - | - | - |
| 1788513658 | 28.33° C | 54% | 1021.6 hPa | - | - | - | - |
| 1788512458 | 28.33° C | 54% | 1021.6 hPa | - | - | - | - |
| 1788511257 | 28.33° C | 54% | 1021.5 hPa | - | - | - | - |
| 1788510075 | 28.33° C | 54% | 1021.3 hPa | - | - | - | - |
| 1788508857 | 28.33° C | 54% | 1021.3 hPa | - | - | - | - |
| 1788507657 | 28.33° C | 54% | 1021.4 hPa | - | - | - | - |
| 1788506456 | 28.89° C | 53% | 1021.3 hPa | - | - | - | - |
| 1788505256 | 28.89° C | 53% | 1021.3 hPa | - | - | - | - |
| 1788504056 | 28.89° C | 52% | 1021.3 hPa | - | - | - | - |
| 1788502856 | 29.44° C | 51% | 1021.1 hPa | - | - | - | - |
| 1788501656 | 30° C | 50% | 1021.1 hPa | - | - | - | - |
| 1788500456 | 36.11° C | 38% | 1020.8 hPa | - | - | - | - |
| 1788499256 | 35.56° C | 40% | 1020.8 hPa | - | - | - | - |
| 1788498055 | 31.67° C | 48% | 1020.9 hPa | - | - | - | - |
| 1788496855 | 31.11° C | 48% | 1020.9 hPa | - | - | - | - |
| 1788495655 | 27.78° C | 57% | 1021.3 hPa | - | - | - | - |
| 1788494455 | 27.78° C | 57% | 1021.3 hPa | - | - | - | - |
| 1788493254 | 27.78° C | 57% | 1021.4 hPa | - | - | - | - |
| 1788492054 | 27.78° C | 57% | 1021.5 hPa | - | - | - | - |
* Rain since midnight (hover to see other rain measurements)
** Current wind speed in m/s (hover to see current wind gust speed)